Regional Weather Roundup
Issued by NWS

Home | Current Version | Previous Version | Graphics & Text | Print | Product List | Glossary On
Versions: 1 2 3 4 5 6 7 8 9 10 11 12 13 14 15 16 17 18 19 20 21 22 23 24 25 26 27 28 29 30 31 32 33 34 35 36 37 38 39 40 41 42 43 44 45 46 47 48 49 50
000
ASUS43 KMPX 190001
RWRMN
WEATHER ROUNDUP FOR MINNESOTA
NATIONAL WEATHER SERVICE TWIN CITIES/CHANHASSEN MN
600 PM CST SAT FEB 18 2017


NOTE: "FAIR" INDICATES FEW OR NO CLOUDS BELOW 12,000 FEET WITH NO
SIGNIFICANT WEATHER AND/OR OBSTRUCTIONS TO VISIBILITY. N/A MEANS
CURRENT SKY AND/OR WEATHER CONDITIONS ARE NOT AVAILABLE.

MNZ060>063-068>070-190100-
   Twin Cities Metro

CITY           SKY/WX    TMP DP  RH WIND       PRES   REMARKS
TWIN CITIES    MOCLDY    54  36  50 SW5       29.79S
6HR MIN TEMP:  52; 6HR MAX TEMP:  58;

ST PAUL        MOCLDY    51  36  56 CALM      29.79S
CRYSTAL        CLOUDY    53  34  48 CALM      29.79R
BLAINE         MOCLDY    54  36  50 W5        29.79S
LAKEVILLE      CLOUDY    50  36  57 CALM      29.79S
EDEN PRAIRIE   PTCLDY    52  37  56 SW3       29.78S
6HR MIN TEMP:  51; 6HR MAX TEMP:  58;

SOUTH ST PAUL  PTCLDY    53  34  48 CALM      29.79S
LAKE ELMO      FAIR      48  36  61 CALM      29.80S
$$
MNZ001>005-007-008-013>017-022>024-027-028-190100-
   Northwest Minnesota

CITY           SKY/WX    TMP DP  RH WIND       PRES   REMARKS
BEMIDJI        CLOUDY    38  32  78 W8        29.76R
HALLOCK        PTCLDY    32  30  93 S3        29.77R
ROSEAU         PTCLDY    37  32  81 SW6       29.75R
WARROAD        MOCLDY    37  34  87 SW8       29.74R
THIEF RVR FALL CLOUDY    36  32  85 W7        29.78
CROOKSTON      CLOUDY    37  36  93 CALM      29.78F
DETROIT LAKES  CLOUDY    41  36  81 SW3       29.80R
MOORHEAD       PTCLDY    41  37  87 CALM      29.78F
PARK RAPIDS    CLOUDY    41  29  62 CALM      29.76R
MAHNOMEN       MOCLDY    38  36  91 CALM      29.77S
$$
MNZ006-009>011-018-025>026-190100-
   North Central Minnesota

CITY           SKY/WX    TMP DP  RH WIND       PRES   REMARKS
BAUDETTE       CLOUDY    38  30  73 W8        29.72R
FLAG ISLAND    CLEAR     41  28  60 W12       29.71R
INTL FALLS     PTCLDY    43  31  62 W6        29.71R
6HR MIN TEMP:  43; 6HR MAX TEMP:  51;

WASKISH        CLOUDY    36  32  87 W9        29.75R
BIG FORK       MOCLDY    45  32  61 W5        29.72S
LONGVILLE      PTCLDY    45  30  57 SW3       29.76R
GRAND RAPIDS   CLOUDY    42  31  64 NW5       29.76R
CRANE LAKE     PTCLDY    46  30  53 W6        29.70R
ORR            PTCLDY    43  30  61 W5        29.68R
COOK           MOCLDY    43  32  65 W9        29.71R
WALKER         FAIR      46  31  55 W7        29.76R
$$
MNZ012-019>021-037-190100-
   Northeast Minnesota

CITY           SKY/WX    TMP DP  RH WIND       PRES   REMARKS
DULUTH         CLOUDY    44  30  57 W10       29.71R
6HR MIN TEMP:  43; 6HR MAX TEMP:  52;

ELY            PTCLDY    45  30  57 W7        29.68R
HIBBING        CLOUDY    45  28  51 W6        29.71R
EVELETH        CLOUDY    45  26  46 W7        29.72R
DULUTH HARBOR  PTCLDY    46  32  57 CALM      29.73R
TWO HARBORS    MOCLDY    52  34  50 W7        29.68R
GRAND MARAIS     N/A     40  34  79 W5        29.64R
G MARAIS ARPRT CLEAR     45  27  49 W7        29.64S
$$
MNZ029>031-032-039>041-046>048-054>057-064-190100-
   West Central Minnesota

CITY           SKY/WX    TMP DP  RH WIND       PRES   REMARKS
FERGUS FALLS   CLOUDY    45  37  76 CALM      29.82S
WHEATON        CLOUDY    45  39  81 E3        29.80S
MORRIS         CLOUDY    45  41  87 E3        29.79R
ALEXANDRIA     MOCLDY    45  40  82 CALM      29.80R
ELBOW LAKE     FAIR      42  39  89 CALM      29.80R
WADENA         CLOUDY    41  36  81 SW7       29.80R
GLENWOOD       PTCLDY    45  39  81 CALM      29.80R
APPLETON       MOCLDY    46  39  76 CALM      29.80R
BENSON         MOCLDY    50  37  62 CALM      29.82R
ORTONVILLE     CLOUDY    46  39  76 CALM      29.79R
WILLMAR        FAIR      48  45  87 CALM      29.83R
$$
MNZ033>034-036-042>043-049>051-058-059-190100-
   Central Minnesota

CITY           SKY/WX    TMP DP  RH WIND       PRES   REMARKS
ST CLOUD       PTCLDY    47  40  76 SW5       29.79R
6HR MIN TEMP:  46; 6HR MAX TEMP:  57;

SAUK CENTRE    FAIR      42  39  88 CALM      29.80R
PAYNESVILLE    PTCLDY    45  40  82 CALM      29.80R
AITKIN         MOCLDY    48  27  43 SW5       29.75R
PINE RIVER     PTCLDY    46  34  61 W3        29.81R
BRAINERD       CLOUDY    47  32  56 W8        29.79R
STAPLES        CLOUDY    43  36  75 CALM      29.79R
LONG PRAIRIE   FAIR      43  37  81 CALM      29.80R
LITTLE FALLS   CLOUDY    46  37  71 W3        29.80R
LITCHFIELD     CLOUDY    48  43  81 CALM      29.81R
BUFFALO        CLOUDY    47  37  68 CALM      29.81R
MAPLE LAKE     CLOUDY    47  40  76 CALM      29.80S
HUTCHINSON     PTCLDY    47  44  87 CALM      29.81R
$$
MNZ037-044-045-052-053-190100-
   East Central Minnesota

CITY           SKY/WX    TMP DP  RH WIND       PRES   REMARKS
PRINCETON      CLOUDY    48  37  66 CALM      29.80R
MORA           CLOUDY    46  36  66 CALM      29.79S
CAMBRIDGE      CLOUDY    52  37  58 CALM      29.77S
RUSH CITY      CLOUDY    48  34  57 CALM      29.78S
MOOSE LAKE     PTCLDY    48  27  43 SW5       29.74R
HINCKLEY       FAIR      45  32  61 SW5       29.77S
CLOQUET        MOCLDY    46  27  46 W7        29.73R
MCGREGOR       MOCLDY    46  32  57 SW5       29.76R
$$
MNZ071>073-080-081-089-090-097-098-190100-
   Southwest Minnesota

CITY           SKY/WX    TMP DP  RH WIND       PRES   REMARKS
MONTEVIDEO     CLOUDY    46  41  81 SE3       29.81R
GRANITE FALLS  CLOUDY    51  43  74 NE3       29.81R
CANBY          CLOUDY    50  43  74 CALM      29.80R
MARSHALL       CLOUDY    52  40  63 SE6       29.80R
REDWOOD FALLS  CLOUDY    52  41  66 SE3       29.79R
OLIVIA         CLOUDY    50  43  76 NE5       29.80R
PIPESTONE      CLEAR     50  37  62 S5        29.78S
WINDOM         PTCLDY    52  39  62 SE3       29.80S
WORTHINGTON    CLOUDY    52  40  63 S6        29.81R
JACKSON        CLEAR     50  37  62 SE6       29.81R
TRACY          CLOUDY    53  43  68 S3        29.79R
SLAYTON        MOCLDY    50  41  71 SE7       29.80S
$$
MNZ065>067-074>077-082>085-091>093-190100-
   South Central Minnesota

CITY           SKY/WX    TMP DP  RH WIND       PRES   REMARKS
MANKATO          N/A     52  36  54 CALM      29.81R
NEW ULM        CLOUDY    50  37  62 CALM      29.80R
ST JAMES       PTCLDY    52  43  71 CALM      29.82R
FAIRMONT       CLEAR     50  43  77 CALM      29.82R
GLENCOE        MOCLDY    49  45  86 CALM      29.80R
FARIBAULT      PTCLDY    46  37  71 CALM      29.81S
OWATONNA       CLEAR     45  37  76 CALM      29.81R
WASECA         CLEAR     45  36  70 CALM      29.82R
ALBERT LEA     CLEAR     52  43  71 CALM      29.81R
$$
MNZ078>079-086>088-094>096-190100-
   Southeast Minnesota

CITY           SKY/WX    TMP DP  RH WIND       PRES   REMARKS
ROCHESTER      CLEAR     50  39  66 N3        29.81S
6HR MIN TEMP:  47; 6HR MAX TEMP:  55;

RED WING       CLEAR     45  34  65 CALM      29.80R
STANTON        PTCLDY    50  42  71 CALM      29.78F
DODGE CENTER   CLEAR     48  39  71 CALM      29.81S
WINONA         CLEAR     50  34  53 CALM      29.81R
AUSTIN         CLEAR     48  41  76 CALM      29.80S
PRESTON        CLEAR     46  38  76 CALM      29.81S
$$
ABBREVIATIONS USED IN REMARKS
   TC - TEMPERATURES IN CELSIUS
  WCI - WIND CHILL INDEX
   HX - HEAT INDEX
  VSB - VISIBILITY
$$



USA.gov is the U.S. government's official web portal to all federal, state and local government web resources and services.